SQ2CDE-4 Weather Reports


time (UTC)temp
F
wind
direction
speed
knots
gust
knots
rain 1hr
in
rain 24hr
in
rain mn
in
humidity
%
barometer
mb
20260504081821 68 280 7.0 0.0 0.00 0.00 0.00 49 1009.0
20260504080817 68 280 7.0 0.0 0.00 0.00 0.00 49 1009.0
20260504050722 57 160 1.7 0.0 0.00 0.00 0.00 67 1008.0
20260504045719 54 210 1.7 0.0 0.00 0.00 0.00 71 1008.0
20260504044717 54 210 1.7 0.0 0.00 0.00 0.00 71 1008.0
20260504043714 54 210 1.7 0.0 0.00 0.00 0.00 71 1008.0
20260504042711 54 210 3.5 0.0 0.00 0.00 0.00 67 1008.0
20260504041708 54 210 3.5 0.0 0.00 0.00 0.00 67 1008.0
20260504040705 54 210 3.5 0.0 0.00 0.00 0.00 67 1008.0
20260504035702 50 210 1.7 0.0 0.00 0.00 0.00 71 1008.0
20260504034659 50 210 1.7 0.0 0.00 0.00 0.00 71 1008.0
20260504033656 50 210 1.7 0.0 0.00 0.00 0.00 71 1008.0
20260504032653 48 230 3.5 0.0 0.00 0.00 0.00 76 1008.0
20260504031649 48 230 3.5 0.0 0.00 0.00 0.00 76 1008.0
20260504030646 48 230 3.5 0.0 0.00 0.00 0.00 76 1008.0
20260504025643 48 0 0.0 0.0 0.00 0.00 0.00 76 1008.0
20260504024640 48 0 0.0 0.0 0.00 0.00 0.00 76 1008.0
20260504023638 48 0 0.0 0.0 0.00 0.00 0.00 76 1008.0
20260504022635 48 190 1.7 0.0 0.00 0.00 0.00 81 1008.0
20260504021632 48 190 1.7 0.0 0.00 0.00 0.00 81 1008.0
20260504020629 48 190 1.7 0.0 0.00 0.00 0.00 81 1008.0
20260504015627 48 0 0.0 0.0 0.00 0.00 0.00 81 1009.0
20260504014623 48 0 0.0 0.0 0.00 0.00 0.00 81 1009.0
20260504012617 48 0 0.0 0.0 0.00 0.00 0.00 81 1009.0
20260504011614 48 0 0.0 0.0 0.00 0.00 0.00 81 1009.0
20260504005609 50 180 1.7 0.0 0.00 0.00 0.00 76 1009.0
20260504004606 50 180 1.7 0.0 0.00 0.00 0.00 76 1009.0
20260504002601 50 0 0.0 0.0 0.00 0.00 0.00 82 1009.0
20260504001558 50 0 0.0 0.0 0.00 0.00 0.00 82 1009.0
20260503235551 52 220 1.7 0.0 0.00 0.00 0.00 76 1010.0
20260503234548 52 220 1.7 0.0 0.00 0.00 0.00 76 1010.0
20260503232541 54 0 0.0 0.0 0.00 0.00 0.00 71 1010.0
20260503231538 54 0 0.0 0.0 0.00 0.00 0.00 71 1010.0
20260503225531 55 0 0.0 0.0 0.00 0.00 0.00 67 1010.0
20260503224528 55 0 0.0 0.0 0.00 0.00 0.00 67 1010.0
20260503222522 55 260 1.7 0.0 0.00 0.00 0.00 67 1010.0
20260503221518 55 260 1.7 0.0 0.00 0.00 0.00 67 1010.0
20260503215512 55 270 1.7 0.0 0.00 0.00 0.00 67 1010.0
20260503214509 55 270 1.7 0.0 0.00 0.00 0.00 67 1010.0
20260503212502 55 250 1.7 0.0 0.00 0.00 0.00 67 1011.0
20260503211459 55 250 1.7 0.0 0.00 0.00 0.00 67 1011.0
20260503210455 57 0 0.0 0.0 0.00 0.00 0.00 63 1011.0
20260503205452 57 0 0.0 0.0 0.00 0.00 0.00 63 1011.0
20260503204449 57 0 0.0 0.0 0.00 0.00 0.00 63 1011.0
20260503203446 57 0 0.0 0.0 0.00 0.00 0.00 58 1011.0
20260503202444 57 0 0.0 0.0 0.00 0.00 0.00 58 1011.0
20260503201438 57 0 0.0 0.0 0.00 0.00 0.00 58 1011.0
20260503200434 59 0 0.0 0.0 0.00 0.00 0.00 55 1011.0
20260503195431 59 0 0.0 0.0 0.00 0.00 0.00 55 1011.0
20260503194428 59 0 0.0 0.0 0.00 0.00 0.00 55 1011.0
20260503193425 61 0 0.0 0.0 0.00 0.00 0.00 51 1011.0
20260503192421 61 0 0.0 0.0 0.00 0.00 0.00 51 1011.0
20260503191418 61 0 0.0 0.0 0.00 0.00 0.00 51 1011.0
20260503190414 63 0 0.0 0.0 0.00 0.00 0.00 48 1010.0
20260503185411 63 0 0.0 0.0 0.00 0.00 0.00 48 1010.0
20260503184408 63 0 0.0 0.0 0.00 0.00 0.00 48 1010.0
20260503183405 66 330 1.7 0.0 0.00 0.00 0.00 40 1010.0
20260503182402 66 330 1.7 0.0 0.00 0.00 0.00 40 1010.0
20260503181358 66 330 1.7 0.0 0.00 0.00 0.00 40 1010.0
20260503180355 68 350 3.5 0.0 0.00 0.00 0.00 37 1010.0
20260503175352 68 350 3.5 0.0 0.00 0.00 0.00 37 1010.0
20260503174348 68 350 3.5 0.0 0.00 0.00 0.00 37 1010.0
20260503173345 68 20 5.2 0.0 0.00 0.00 0.00 40 1010.0
20260503172342 68 20 5.2 0.0 0.00 0.00 0.00 40 1010.0
20260503171339 68 20 5.2 0.0 0.00 0.00 0.00 40 1010.0
20260503170336 70 350 5.2 0.0 0.00 0.00 0.00 38 1010.0
20260503150235 82 220 8.7 0.0 0.00 0.00 0.00 17 1010.0
20260503140150 82 220 7.0 0.0 0.00 0.00 0.00 20 1011.0
20260503131124 82 240 8.7 0.0 0.00 0.00 0.00 20 1011.0
20260503130120 82 210 8.7 0.0 0.00 0.00 0.00 17 1011.0